Погода Екатерино-Никольское

Погода Екатерино-Никольское : погода сейчас, прогноз погоды и архив. Всё, что Вы хотите узнать о погоде Екатерино-Никольское!

Хотите узнать прогноз погоды Екатерино-Никольское? Тогда Вам сюда: Погода Екатерино-Никольское

Поиск расширенной информации на нашем сайте:

Другие новости

Новости СМИ2

Главная страница сайта

Новости сайта

03.07.2017

Напоминаем, что на нашем специализированном сайте Метеоцентр.Азия вы можете получить высокодетализированные автоматические прогнозы погоды по пунктам России, СНГ и мира в авиационном формате (включающие направление и скорость ветра, видимость, явления погоды, количество и форму облачности, нижнюю и верхнюю границу облачности).


Погода Екатерино-Никольское - сегодня

Время (UTC), дата Ветер
(°,м/с) 
Видим.   Явления Облачность Т
(°С)
Тd
(°С)
f(%) Тe
(°С)
Pmin
(гПа)
dP
(гПа)
Po
(мм)
O2
(г/м3)
Тmin Tmax R s Состояние
почвы
12 19.02.18 340 (С) 20000 м    10/4 600 м средняя, верхняя 
[Sc|Ac As|Ci fib]
-14.5 -23.7 46 -15  1017.2  0.4  756  323           
15 19.02.18 310 (СЗ) 20000 м    10/3 600 м средняя, верхняя 
[Sc|Ac As|Ci fib]
-17.4 -20.6 76 -18  1017.6  0.3  756  327           
18 19.02.18 250 (З) 20000 м    10/0 средняя, верхняя 
[Ac As|Ci fib]
-19.6 -22 81 -22  1017.2  -0.5  755  330           
00 20.02.18 230 (ЮЗ) 20000 м    5/0 средняя, верхняя 
[Ac As|Ci fib]
-15.5 -22.7 54 -18  1017.4  0.6  756  325           
03 20.02.18 310 (СЗ) 20000 м    5/0 средняя, верхняя 
[Ac As|Ci fib]
-12 -24.7 34 -16  1017  -0.3  756  320           
06 20.02.18 270 (З) 4{10}  20000 м    8/0 средняя, верхняя 
[Ac As|Ci fib]
-10.4 -24.3 31 -14  1015.7  -0.3  755  318           
12 20.02.18 320 (СЗ) 20000 м    6/0 верхняя 
[Ci fib]
-14.9 -26.9 35 -19  1018.9  757  324           
15 20.02.18 160 (Ю) 20000 м    4/0 верхняя 
[Ci fib]
-20.8 -27.5 55 -21  1019.1  757  332           
18 20.02.18 210 (ЮЗ) 20000 м    4/0 верхняя 
[Ci fib]
-18.7 -26.2 52 -21  1018.5  -0.5  757  329           
03 21.02.18 200 (Ю) 20000 м    3/0 верхняя 
[Ci fib]
-11.2 -20.8 45 -15  1016.2  -1.8  755  319           
06 21.02.18 190 (Ю) 20000 м    4/3 600 м верхняя 
[Sc|Ci fib]
-7.8 -18.3 43 -12  1013.4  -2.6  753  314           
12 21.02.18 тихо ()   20000 м    10/0 средняя, верхняя 
[Ac As|Cs]
-12.9 -18 66 -13  1014.2  0.3  754  320           
15 21.02.18 260 (З) 20000 м    10/0 
-11.7 -21.1 46 -14  1013.9  -0.2  753  319           
18 21.02.18 260 (З) 20000 м    10/0 средняя 
[Ac As]
-13.6 -20.5 56 -14  1013.8  -0.2  753  321           
03 22.02.18 280 (З) 20000 м    8/0 средняя, верхняя 
[Ac trans|Ci fib]
-9.4 -16.3 57 -9  1013.6  -0.6  753  316           
06 22.02.18 230 (ЮЗ) 20000 м    10/0 средняя, верхняя 
[Sc|Ac As|Ci fib]
-7.3 -8.6 90 -9  1013  -0.6  753  313           
09 22.02.18 тихо ()   20000 м    10/0 средняя 
[Sc|Ac As]
-11.1 -15.3 71 -11  1014.8  1.7  754  318    -0.1       
12 22.02.18 330 (СЗ) 20000 м    10/3 600 м средняя, верхняя 
[Sc|Ac As|Cs]
-12.8 -14 91 -15  1016.6  1.7  755  321           
15 22.02.18 320 (СЗ) 20000 м    10/0 средняя, верхняя 
[Ac As|Cs]
-15.6 -20.3 67 -19  1017.7  756  325           
18 22.02.18 310 (СЗ) 20000 м    8/0 средняя, верхняя 
[Ac As|Ci fib]
-17.9 -21.5 73 -22  1018.4  0.7  757  328           
03 23.02.18 320 (СЗ) 20000 м    6/0 средняя, верхняя 
[Ac trans|Ci fib]
-10.7 -21.4 41 -14  1022.1  0.3  759  320           
06 23.02.18 350 (С) 20000 м    8/0 средняя, верхняя 
[Ac trans|Ci fib]
-9.3 -23.6 30 -13  1021.8  -0.3  759  318           
12 23.02.18 320 (СЗ) 20000 м    10/3 600 м средняя, верхняя 
[Sc|Ac As|Ci]
-14.6 -26 37 -18  1026.1  2.3  762  326           
15 23.02.18 320 (СЗ) 20000 м    10/0 средняя, верхняя 
[Ac As|Ci fib]
-19.1 -25.3 58 -23  1027.5  1.2  763  332           
18 23.02.18 310 (СЗ) 20000 м    10/0 средняя, верхняя 
[Ac As|Ci fib]
-22.6 -26.4 71 -26  1028.5  0.8  764  337           
Время (UTC), дата Ветер
(°,м/с) 
Видим.   Явления Облачность Т
(°С)
Тd
(°С)
f(%) Тe
(°С)
Pmin
(гПа)
dP
(гПа)
Po
(мм)
O2
(г/м3)
Тmin Tmax R s Состояние
почвы

Для получения пояснительной информации подведите курсор к названию столбца.

ПОГОДА Екатерино-Никольское - архив

Всё, что Вы хотите узнать о погоде Екатерино-Никольское - удобно и подробно!

Выберите нужную дату (начиная с 1 января 2015* года) и нажмите кнопку "Найти".
Будут отображены архивные сводки погоды по пункту Екатерино-Никольское, начиная с указанной даты.


Отображать данные в формате CSV (для использования в таблицах Excel)


Внимание! Наш архив погоды предназначен исключительно для личного некоммерческого использования в познавательных целях. Если Вам необходимы официальные справки о состоянии погоды (для производственных, юридических, коммерческих и т.п. целей), обращайтесь в органы Росгидромета.

*Примечание: данная дата относится к архиву по метеостанциям СССР (Россия, СНГ, Балтия).
Архив по метеостанциям Зарубежной Европы и Азии (кроме Китая) хранится 10 дней, по другим регионам земного шара (Китай, Африка, Америка, Австралия, Океания) - 1 день.

Екатерино-Никольское - район местоположения метеостанции


Название, широта, долгота, высота метеостанции:
Екатерино-Никольское 47.7°ш. 131°д. 73 м над ур. моря [Российская Федерация]

Дополнительная информация

В oтличие oт бoльшинства пoгoдных сайтoв мы публикуем пoдрoбную метеoинфoрмацию в детальнoм прoфессиoнальнoм фoрмате.

Характеристики температуры и влажнoсти вoздуха измеряются на высoте 2 м в тени вдали oт зданий и деревьев.
Скoрoсть ветра измеряется на высoте 10 м (на урoвне рoста челoвека скoрoсть ветра ниже в 1.5-2 раза). Если метеoстанция нахoдится в гoрoде или в лесу, тo скoрoсть ветра занижена на 2-4 м/с пo сравнению с oткрытым местoм. Скoрoсть ветра над акватoриями крупных рек и oзёр, а также на вершинах хoлмoв на 2-5 м/с выше, чем в oбычных услoвиях.
Атмoсфернoе давление в разных тoчках местнoсти мoжет значительнo oтличаться oт давления на метеoстанции, в зависимoсти oт услoвий рельефа (при пoдъёме на 10 м давление пoнижается примернo на 1 мм рт.ст.).